COSMOS 2384

Satellite information

Favourite Embed

Satellite Type and Status

PAYLOADIN ORBIT

Key statistics

Satellite COSMOS 2384 at a glance.

Uptime

8653

Days in orbit

Revolutions

≈ 12.6

Per day

Orbit

LEO

Low Earth Orbit

Inclination

82.5

Latest

Satellite identification and parameters

Extended collection of information and parameters for COSMOS 2384.

Object identification

Identified? True

Debris? False

Object name: COSMOS 2384

International designator: 2001-058A

Object number (NORAD): 27055

Object ID (CCSDS): 27055

Country: COMMONWEALTH OF INDEPENDENT STATES (CIS)

Current information (Y/N): Y

RCS size: MEDIUM

Orbital parameters

Period: 114.296 minutes

Inclination: 82.5427 deg

SMA: 7801.567 km

Apoapsis: 1431.478 km

Periapsis: 1415.385 km

RAAN: 54.9323 deg

Eccentricy: 0.00103142

Argument of periapsis: 171.0642 deg

Mean anomaly: 189.0633 deg

Mean motion: 12.59882417 rev/day

Mean motion (dot): 0.00000026 rev/day2

B* drag term: 0.000088610829 1/REarth

Two-line elements (TLE)

Creation date: Sept. 6, 2025, 2:09 a.m.

Reference frame: TEME

Reference center: EARTH

Epoch: Sept. 5, 2025, 11:14 p.m. UTC

TLE line 0: 0 COSMOS 2384

TLE line 1: 1 27055U 01058A 25248.96868696 .00000026 00000-0 88611-4 0 9998

TLE line 2: 2 27055 82.5427 54.9323 0010314 171.0642 189.0633 12.59882417 89267

Live tracking on map

Real-time ground track for satellite COSMOS 2384.

In-orbit conjunctions

A list of the most updated potential collisions computed for object COSMOS 2384.

Target Orbit TCA Probability of collision Miss distance Type
DELTA 1 DEB SSO 2024-11-11 10:34:07 0.0008295364 317.0 (m) DEBRIS

Associated space launch

Gonets- satellite were the civilian derivate of the military Strela-3 satellite system. The Gonets system was offered to support international health organizations to meet their global communications needs for the transfer of medical data and records to remote sites. Strela-3 was second generation of strategic store-dump military communications satellite. Development of this generation to replace the first generation Strela-1M and Strela-2M satellites began in 1973.

COSMOS 2384 was lifted into orbit during the mission ‘Tsiklon-3 | Strela-3 128 to 130 & Gonets 10 to 12’, on board a Tsiklon-3 space rocket.

The launch took place on Dec. 28, 2001, 3:24 a.m. from 32/1.

For more information about the launch, click the button.

Launch to space Tsiklon-3 | Strela-3 128 to 130 & Gonets 10 to 12
Tsiklon-3 | Strela-3 128 to 130 & Gonets 10 to 12

Agency: N/A

Status: Launch Successful

Launch date: Dec. 28, 2001, 3:24 a.m. UTC

Rocket: Tsiklon-3

Launch pad: 32/1

Location: Plesetsk Cosmodrome, Russian Federation

...

Latest news about this satellite

There are no fresh news available about this satellite. Check back as we update our databases every day.


Newsletter sign-up

Weekly statistics, charts and insights to help you stay on top of the space industry.